This is the latest recevied weather packets stored in our database for station/object N5VIS. If no packets are shown the sender has not sent any weather packets the latest 10 day(s).
| Time | Temp. | Humidity | Pressure | Rain* | Wind** | Luminosity | Snow |
|---|---|---|---|---|---|---|---|
| 1777891569 | 12.22° C | 97% | 1018.2 hPa | 0 mm | - | - | - |
| 1777891266 | 12.22° C | 97% | 1018 hPa | 0 mm | - | - | - |
| 1777890966 | 12.22° C | 97% | 1018.2 hPa | 0 mm | - | - | - |
| 1777890660 | 12.78° C | 97% | 1017.9 hPa | 0 mm | - | - | - |
| 1777890356 | 12.78° C | 97% | 1018.3 hPa | 0 mm | - | - | - |
| 1777890052 | 12.78° C | 97% | 1018.1 hPa | 0 mm | - | - | - |
| 1777889750 | 12.78° C | 96% | 1018.1 hPa | 0 mm | - | - | - |
| 1777889448 | 12.78° C | 96% | 1018.2 hPa | 0 mm | - | - | - |
| 1777889145 | 12.78° C | 96% | 1018.3 hPa | 0 mm | - | - | - |
| 1777888843 | 12.78° C | 95% | 1018.3 hPa | 0 mm | - | - | - |
| 1777888539 | 12.78° C | 95% | 1018.3 hPa | 0 mm | - | - | - |
| 1777888235 | 12.78° C | 95% | 1018.3 hPa | 0 mm | - | - | - |
| 1777887932 | 13.33° C | 94% | 1018.4 hPa | 0 mm | - | - | - |
| 1777887629 | 13.33° C | 94% | 1018.3 hPa | 0 mm | - | - | - |
| 1777887325 | 12.78° C | 95% | 1018.3 hPa | 0 mm | - | - | - |
| 1777887021 | 12.78° C | 94% | 1018.3 hPa | 0 mm | - | - | - |
| 1777886717 | 12.78° C | 93% | 1018.3 hPa | 0 mm | - | - | - |
| 1777886414 | 12.78° C | 93% | 1018.3 hPa | 0 mm | - | - | - |
| 1777886112 | 13.33° C | 93% | 1018.5 hPa | 0 mm | - | - | - |
| 1777885810 | 13.33° C | 92% | 1018.4 hPa | 0 mm | - | - | - |
| 1777885508 | 13.33° C | 92% | 1018.6 hPa | 0 mm | - | - | - |
| 1777885206 | 13.89° C | 91% | 1018.4 hPa | 0 mm | - | - | - |
| 1777884903 | 13.89° C | 91% | 1018.5 hPa | 0 mm | - | - | - |
| 1777884599 | 13.89° C | 90% | 1018.2 hPa | 0 mm | - | - | - |
| 1777884296 | 14.44° C | 89% | 1018.5 hPa | 0 mm | - | - | - |
* Rain latest hour (hover to see other rain measurements)
** Current wind speed in m/s (hover to see current wind gust speed)